When you browse on this site, cookies collect data to enhance your experience and personalize the content and advertising you see.
Visit our Privacy Policy to learn more. By continuing to use the site, you agree to this use of cookies and data.
  • In Portugal
  • List of Countries
  • For 7 days
  • Water Temperature
  • Weather Map
  • Weather Widgets
  • user-avatar
    Login

    Hourly Weather Aguada de Cima

    Today, 23 February, Sunday

    Time Temperature Precipitation Wind Pressure Humidity
    00:00 +12°C° 0 mm 1 mps 765 mmHg 67%
    01:00 +12°C° 0 mm 1 mps 765 mmHg 65%
    02:00 +11°C° 0 mm 1 mps 765 mmHg 63%
    03:00 +11°C° 0 mm 1 mps 765 mmHg 63%
    04:00 +10°C° 0 mm 2 mps 765 mmHg 62%
    05:00 +10°C° 0 mm 2 mps 765 mmHg 61%
    06:00 +12°C° 0 mm 2 mps 765 mmHg 60%
    07:00 +13°C° 0 mm 2 mps 765 mmHg 58%
    08:00 +14°C° 0 mm 2 mps 765 mmHg 56%
    09:00 +18°C° 0 mm 1 mps 765 mmHg 50%
    10:00 +21°C° 0 mm 1 mps 766 mmHg 43%
    11:00 +24°C° 0 mm 1 mps 766 mmHg 37%
    12:00 +24°C° 0 mm 1 mps 765 mmHg 37%
    13:00 +24°C° 0 mm 1 mps 764 mmHg 37%
    14:00 +24°C° 0 mm 1 mps 764 mmHg 37%
    15:00 +22°C° 0 mm 1 mps 764 mmHg 45%
    16:00 +20°C° 0 mm 1 mps 764 mmHg 53%
    17:00 +16°C° 0 mm 1 mps 763 mmHg 62%
    18:00 +15°C° 0 mm 1 mps 763 mmHg 64%
    19:00 +14°C° 0 mm 1 mps 763 mmHg 66%
    20:00 +14°C° 0 mm 1 mps 763 mmHg 68%
    21:00 +13°C° 0 mm 1 mps 764 mmHg 68%
    22:00 +13°C° 0 mm 1 mps 764 mmHg 69%
    23:00 +13°C° 0 mm 1 mps 764 mmHg 70%

    Tomorrow, 24 February, Monday

    Time Temperature Precipitation Wind Pressure Humidity
    00:00 +12°C° 0 mm 1 mps 764 mmHg 70%
    01:00 +12°C° 0 mm 1 mps 763 mmHg 70%
    02:00 +12°C° 0 mm 1 mps 763 mmHg 70%
    03:00 +11°C° 0 mm 1 mps 763 mmHg 69%
    04:00 +11°C° 0 mm 1 mps 763 mmHg 68%
    05:00 +11°C° 0 mm 1 mps 763 mmHg 68%
    06:00 +12°C° 0 mm 1 mps 763 mmHg 65%
    07:00 +13°C° 0 mm 1 mps 763 mmHg 62%
    08:00 +15°C° 0 mm 1 mps 763 mmHg 59%
    09:00 +18°C° 0 mm 1 mps 763 mmHg 53%
    10:00 +20°C° 0 mm 1 mps 763 mmHg 48%
    11:00 +22°C° 0 mm 1 mps 762 mmHg 42%
    12:00 +21°C° 0 mm 2 mps 762 mmHg 44%
    13:00 +21°C° 0 mm 2 mps 762 mmHg 46%
    14:00 +20°C° 0 mm 3 mps 761 mmHg 48%
    15:00 +18°C° 0 mm 2 mps 761 mmHg 56%
    16:00 +17°C° 0 mm 2 mps 761 mmHg 64%
    17:00 +15°C° 0 mm 2 mps 761 mmHg 72%
    18:00 +13°C° 0 mm 2 mps 761 mmHg 77%
    19:00 +12°C° 0 mm 1 mps 761 mmHg 81%
    20:00 +11°C° 0 mm 1 mps 762 mmHg 86%
    21:00 +10°C° 0 mm 1 mps 761 mmHg 86%
    22:00 +9°C° 0 mm 0 mps 761 mmHg 86%
    23:00 +9°C° 0 mm 0 mps 761 mmHg 86%

    Day after tomorrow, 25 February, Tuesday

    Time Temperature Precipitation Wind Pressure Humidity
    00:00 +9°C° 0 mm 0 mps 761 mmHg 86%
    01:00 +9°C° 0 mm 0 mps 761 mmHg 87%
    02:00 +9°C° 0 mm 0 mps 761 mmHg 88%
    03:00 +9°C° 0 mm 0 mps 761 mmHg 90%
    04:00 +8°C° 0 mm 0 mps 761 mmHg 92%
    05:00 +8°C° 0 mm 0 mps 761 mmHg 94%
    06:00 +9°C° 0 mm 0 mps 761 mmHg 91%
    07:00 +10°C° 0 mm 0 mps 761 mmHg 88%
    08:00 +12°C° 0 mm 1 mps 761 mmHg 85%
    09:00 +13°C° 0.1 mm 1 mps 761 mmHg 84%
    10:00 +13°C° 0.1 mm 1 mps 761 mmHg 83%
    11:00 +14°C° 0.1 mm 2 mps 761 mmHg 82%
    12:00 +14°C° 0.2 mm 2 mps 760 mmHg 86%
    13:00 +14°C° 0.2 mm 2 mps 760 mmHg 90%
    14:00 +14°C° 0.2 mm 2 mps 760 mmHg 94%
    15:00 +14°C° 0.3 mm 2 mps 760 mmHg 95%
    16:00 +14°C° 0.3 mm 2 mps 760 mmHg 95%
    17:00 +14°C° 0.3 mm 2 mps 760 mmHg 95%
    18:00 +12°C° 0 mm 3 mps 760 mmHg 94%
    19:00 +11°C° 0 mm 3 mps 761 mmHg 94%
    20:00 +10°C° 0 mm 3 mps 761 mmHg 93%
    21:00 +9°C° 0 mm 3 mps 761 mmHg 93%
    22:00 +9°C° 0 mm 2 mps 761 mmHg 93%
    23:00 +8°C° 0 mm 2 mps 761 mmHg 93%

    26 February, Wednesday

    Time Temperature Precipitation Wind Pressure Humidity
    00:00 +8°C° 0 mm 2 mps 761 mmHg 92%
    01:00 +7°C° 0 mm 2 mps 761 mmHg 91%
    02:00 +7°C° 0 mm 2 mps 761 mmHg 90%
    03:00 +7°C° 0 mm 2 mps 761 mmHg 90%
    04:00 +7°C° 0 mm 2 mps 761 mmHg 89%
    05:00 +6°C° 0 mm 2 mps 761 mmHg 89%
    06:00 +7°C° 0 mm 2 mps 761 mmHg 86%
    07:00 +9°C° 0 mm 1 mps 762 mmHg 83%
    08:00 +10°C° 0 mm 1 mps 762 mmHg 80%
    09:00 +12°C° 0 mm 2 mps 762 mmHg 72%
    10:00 +12°C° 0 mm 3 mps 762 mmHg 65%
    11:00 +14°C° 0 mm 3 mps 762 mmHg 57%
    12:00 +16°C° 0 mm 3 mps 761 mmHg 54%
    13:00 +16°C° 0 mm 3 mps 761 mmHg 52%
    14:00 +17°C° 0 mm 3 mps 760 mmHg 49%
    15:00 +14°C° 0 mm 3 mps 760 mmHg 57%
    16:00 +13°C° 0 mm 3 mps 760 mmHg 64%
    17:00 +11°C° 0 mm 3 mps 760 mmHg 71%
    18:00 +10°C° 0 mm 3 mps 760 mmHg 76%
    19:00 +9°C° 0 mm 2 mps 760 mmHg 82%
    20:00 +8°C° 0 mm 2 mps 761 mmHg 88%
    21:00 +7°C° 0 mm 2 mps 761 mmHg 88%
    22:00 +7°C° 0 mm 2 mps 761 mmHg 89%
    23:00 +8°C° 0 mm 1 mps 761 mmHg 90%

    27 February, Thursday

    Time Temperature Precipitation Wind Pressure Humidity
    00:00 +7°C° 0 mm 1 mps 760 mmHg 89%
    01:00 +7°C° 0 mm 1 mps 760 mmHg 88%
    02:00 +7°C° 0 mm 1 mps 759 mmHg 87%
    03:00 +7°C° 0 mm 1 mps 759 mmHg 85%
    04:00 +6°C° 0 mm 1 mps 759 mmHg 83%
    05:00 +6°C° 0 mm 1 mps 759 mmHg 81%
    06:00 +8°C° 0 mm 1 mps 759 mmHg 76%
    07:00 +9°C° 0 mm 1 mps 760 mmHg 70%
    08:00 +10°C° 0 mm 1 mps 760 mmHg 64%
    09:00 +13°C° 0 mm 1 mps 760 mmHg 57%
    10:00 +16°C° 0 mm 1 mps 759 mmHg 49%
    11:00 +19°C° 0 mm 1 mps 759 mmHg 42%
    12:00 +19°C° 0 mm 1 mps 759 mmHg 43%
    13:00 +19°C° 0 mm 1 mps 758 mmHg 44%
    14:00 +18°C° 0 mm 2 mps 757 mmHg 45%
    15:00 +17°C° 0 mm 2 mps 757 mmHg 54%
    16:00 +15°C° 0 mm 2 mps 757 mmHg 62%
    17:00 +13°C° 0 mm 2 mps 757 mmHg 71%
    18:00 +12°C° 0 mm 1 mps 757 mmHg 76%
    19:00 +11°C° 0 mm 1 mps 757 mmHg 80%
    20:00 +10°C° 0 mm 1 mps 757 mmHg 84%
    21:00 +10°C° 0 mm 1 mps 757 mmHg 84%
    22:00 +10°C° 0 mm 1 mps 757 mmHg 83%
    23:00 +9°C° 0 mm 0 mps 757 mmHg 83%

    28 February, Friday

    Time Temperature Precipitation Wind Pressure Humidity
    00:00 +9°C° 0 mm 1 mps 756 mmHg 83%
    01:00 +9°C° 0 mm 1 mps 756 mmHg 83%
    02:00 +9°C° 0 mm 1 mps 755 mmHg 84%
    03:00 +9°C° 0 mm 1 mps 755 mmHg 82%
    04:00 +9°C° 0 mm 1 mps 755 mmHg 81%
    05:00 +9°C° 0 mm 1 mps 755 mmHg 79%
    06:00 +10°C° 0 mm 1 mps 755 mmHg 75%
    07:00 +11°C° 0 mm 1 mps 755 mmHg 70%
    08:00 +12°C° 0 mm 1 mps 755 mmHg 66%
    09:00 +14°C° 0 mm 2 mps 754 mmHg 60%
    10:00 +16°C° 0 mm 3 mps 754 mmHg 55%
    11:00 +18°C° 0 mm 4 mps 754 mmHg 49%
    12:00 +18°C° 0 mm 4 mps 754 mmHg 51%
    13:00 +17°C° 0 mm 5 mps 753 mmHg 53%
    14:00 +16°C° 0 mm 6 mps 752 mmHg 55%
    15:00 +15°C° 0 mm 6 mps 752 mmHg 64%
    16:00 +14°C° 0 mm 5 mps 752 mmHg 72%
    17:00 +13°C° 0 mm 5 mps 752 mmHg 81%
    18:00 +13°C° 1.6 mm 6 mps 752 mmHg 86%
    19:00 +13°C° 1.6 mm 6 mps 752 mmHg 90%
    20:00 +13°C° 1.6 mm 6 mps 753 mmHg 94%
    21:00 +11°C° 0.7 mm 6 mps 753 mmHg 92%
    22:00 +12°C° 0.7 mm 5 mps 754 mmHg 90%
    23:00 +12°C° 0.7 mm 4 mps 754 mmHg 87%
    Show more